| time (UTC) | temp C | wind direction | speed KPH | gust KPH | rain 1hr cm | rain 24hr cm | rain mn cm | humidity % | barometer mb |
| 20260507002558 | 7 | 51 | 3.2 | 8.0 | 0.00 | 0.05 | 0.00 | 88 | 1010.7 |
| 20260507002058 | 7 | 52 | 3.2 | 9.7 | 0.00 | 0.05 | 0.00 | 88 | 1010.7 |
| 20260507001605 | 7 | 40 | 4.8 | 9.7 | 0.00 | 0.05 | 0.00 | 88 | 1010.7 |
| 20260507001058 | 7 | 54 | 4.8 | 9.7 | 0.00 | 0.05 | 0.00 | 88 | 1010.7 |
| 20260507000601 | 7 | 47 | 4.8 | 14.5 | 0.00 | 0.05 | 0.00 | 88 | 1010.6 |
| 20260507000059 | 7 | 18 | 6.4 | 14.5 | 0.00 | 0.05 | 0.00 | 88 | 1010.6 |
| 20260506235557 | 7 | 17 | 1.6 | 8.0 | 0.00 | 0.15 | 0.00 | 88 | 1010.6 |
| 20260506235100 | 7 | 19 | 4.8 | 8.0 | 0.00 | 0.15 | 0.00 | 88 | 1010.6 |
| 20260506234600 | 7 | 47 | 4.8 | 9.7 | 0.00 | 0.15 | 0.00 | 88 | 1010.6 |
| 20260506234057 | 7 | 36 | 1.6 | 11.3 | 0.00 | 0.15 | 0.00 | 88 | 1010.6 |
| 20260506233559 | 7 | 45 | 1.6 | 11.3 | 0.00 | 0.15 | 0.00 | 88 | 1010.6 |
| 20260506233100 | 7 | 43 | 6.4 | 12.9 | 0.00 | 0.15 | 0.00 | 88 | 1010.6 |
| 20260506232602 | 7 | 70 | 3.2 | 11.3 | 0.00 | 0.15 | 0.00 | 88 | 1010.6 |
| 20260506232059 | 7 | 51 | 4.8 | 9.7 | 0.00 | 0.15 | 0.00 | 88 | 1010.5 |
| 20260506231611 | 7 | 63 | 4.8 | 9.7 | 0.00 | 0.15 | 0.00 | 88 | 1010.6 |
| 20260506231059 | 7 | 46 | 3.2 | 9.7 | 0.00 | 0.15 | 0.00 | 88 | 1010.6 |
| 20260506230558 | 7 | 82 | 3.2 | 8.0 | 0.00 | 0.15 | 0.00 | 88 | 1010.4 |
| 20260506230116 | 7 | 63 | 1.6 | 8.0 | 0.00 | 0.15 | 0.00 | 88 | 1010.0 |
| 20260506225600 | 7 | 49 | 1.6 | 11.3 | 0.00 | 0.15 | 0.00 | 88 | 1010.0 |
| 20260506225059 | 7 | 350 | 3.2 | 14.5 | 0.00 | 0.15 | 0.00 | 88 | 1009.9 |
| 20260506224603 | 7 | 302 | 6.4 | 14.5 | 0.00 | 0.15 | 0.00 | 88 | 1009.8 |
| 20260506224101 | 7 | 299 | 3.2 | 9.7 | 0.00 | 0.15 | 0.00 | 88 | 1009.8 |
| 20260506223600 | 7 | 18 | 4.8 | 9.7 | 0.00 | 0.15 | 0.00 | 88 | 1009.7 |
| 20260506223103 | 7 | 214 | 3.2 | 12.9 | 0.00 | 0.15 | 0.00 | 88 | 1009.7 |
| 20260506222600 | 7 | 10 | 6.4 | 14.5 | 0.00 | 0.15 | 0.00 | 88 | 1009.7 |
| 20260506222100 | 8 | 335 | 3.2 | 11.3 | 0.00 | 0.15 | 0.00 | 88 | 1009.7 |
| 20260506221631 | 8 | 36 | 0.0 | 14.5 | 0.00 | 0.15 | 0.00 | 88 | 1009.8 |
| 20260506221501 | 8 | 38 | 0.0 | 14.5 | 0.00 | 0.15 | 0.00 | 88 | 1009.7 |
| 20260506221100 | 8 | 320 | 4.8 | 14.5 | 0.00 | 0.15 | 0.00 | 88 | 1009.7 |
| 20260506220600 | 8 | 328 | 3.2 | 14.5 | 0.00 | 0.15 | 0.00 | 88 | 1009.7 |
| 20260506220133 | 8 | 344 | 6.4 | 14.5 | 0.00 | 0.15 | 0.00 | 88 | 1009.7 |
| 20260506220005 | 8 | 33 | 3.2 | 11.3 | 0.00 | 0.15 | 0.15 | 88 | 1009.7 |
| 20260506215600 | 8 | 16 | 1.6 | 11.3 | 0.00 | 0.15 | 0.15 | 88 | 1009.6 |
| 20260506215059 | 8 | 323 | 4.8 | 9.7 | 0.00 | 0.15 | 0.15 | 88 | 1009.6 |
| 20260506214600 | 8 | 78 | 1.6 | 8.0 | 0.00 | 0.15 | 0.15 | 88 | 1009.7 |
| 20260506214101 | 8 | 50 | 4.8 | 12.9 | 0.00 | 0.15 | 0.15 | 88 | 1009.6 |
| 20260506213600 | 8 | 342 | 4.8 | 14.5 | 0.00 | 0.15 | 0.15 | 88 | 1009.7 |
| 20260506213111 | 8 | 15 | 6.4 | 14.5 | 0.00 | 0.15 | 0.15 | 88 | 1009.6 |
| 20260506212601 | 8 | 317 | 4.8 | 9.7 | 0.00 | 0.15 | 0.15 | 87 | 1009.7 |
| 20260506212104 | 8 | 331 | 1.6 | 14.5 | 0.00 | 0.15 | 0.15 | 87 | 1009.8 |
| 20260506212001 | 8 | 103 | 0.0 | 14.5 | 0.00 | 0.15 | 0.15 | 87 | 1009.8 |
| 20260506211601 | 8 | 46 | 4.8 | 14.5 | 0.00 | 0.15 | 0.15 | 87 | 1009.6 |
| 20260506211101 | 8 | 33 | 0.0 | 8.0 | 0.00 | 0.15 | 0.15 | 87 | 1009.6 |
| 20260506210601 | 8 | 64 | 1.6 | 9.7 | 0.00 | 0.15 | 0.15 | 87 | 1009.5 |
| 20260506210106 | 8 | 9 | 3.2 | 12.9 | 0.00 | 0.15 | 0.15 | 87 | 1009.6 |
| 20260506210009 | 8 | 53 | 3.2 | 12.9 | 0.00 | 0.15 | 0.15 | 87 | 1009.6 |
| 20260506205559 | 8 | 319 | 4.8 | 12.9 | 0.00 | 0.15 | 0.15 | 87 | 1009.6 |
| 20260506205059 | 8 | 346 | 3.2 | 12.9 | 0.00 | 0.15 | 0.15 | 87 | 1009.6 |
| 20260506204607 | 8 | 304 | 1.6 | 11.3 | 0.00 | 0.15 | 0.15 | 87 | 1009.4 |
| 20260506204059 | 8 | 36 | 4.8 | 12.9 | 0.00 | 0.15 | 0.15 | 87 | 1009.4 |
| 20260506203559 | 8 | 306 | 4.8 | 9.7 | 0.00 | 0.15 | 0.15 | 87 | 1009.3 |
| 20260506203002 | 8 | 47 | 1.6 | 8.0 | 0.00 | 0.15 | 0.15 | 87 | 1009.4 |
| 20260506202559 | 8 | 100 | 0.0 | 12.9 | 0.00 | 0.15 | 0.15 | 87 | 1009.3 |
| 20260506202058 | 8 | 310 | 3.2 | 12.9 | 0.00 | 0.15 | 0.15 | 87 | 1009.3 |
| 20260506201600 | 9 | 297 | 1.6 | 8.0 | 0.00 | 0.15 | 0.15 | 87 | 1009.2 |
| 20260506201059 | 9 | 36 | 3.2 | 8.0 | 0.00 | 0.15 | 0.15 | 86 | 1009.1 |
| 20260506200559 | 9 | 319 | 0.0 | 6.4 | 0.00 | 0.15 | 0.15 | 86 | 1009.2 |
| 20260506200100 | 9 | 292 | 1.6 | 6.4 | 0.00 | 0.15 | 0.15 | 86 | 1009.1 |
| 20260506200002 | 9 | 303 | 1.6 | 6.4 | 0.00 | 0.15 | 0.15 | 86 | 1009.1 |
| 20260506195600 | 9 | 342 | 0.0 | 4.8 | 0.00 | 0.15 | 0.15 | 86 | 1009.1 |
| 20260506195006 | 9 | 301 | 0.0 | 4.8 | 0.00 | 0.15 | 0.15 | 86 | 1009.1 |
| 20260506194600 | 9 | 82 | 1.6 | 6.4 | 0.00 | 0.15 | 0.15 | 86 | 1009.0 |
| 20260506194501 | 9 | 51 | 3.2 | 6.4 | 0.00 | 0.15 | 0.15 | 86 | 1009.0 |
| 20260506194100 | 9 | 34 | 3.2 | 6.4 | 0.00 | 0.15 | 0.15 | 86 | 1009.0 |
| 20260506194000 | 9 | 48 | 3.2 | 8.0 | 0.00 | 0.15 | 0.15 | 86 | 1009.0 |
| 20260506193600 | 9 | 63 | 3.2 | 9.7 | 0.00 | 0.15 | 0.15 | 86 | 1009.0 |
| 20260506193111 | 9 | 46 | 3.2 | 8.0 | 0.00 | 0.15 | 0.15 | 86 | 1009.0 |
| 20260506192600 | 10 | 74 | 1.6 | 6.4 | 0.00 | 0.15 | 0.15 | 86 | 1009.0 |
| 20260506192101 | 10 | 40 | 1.6 | 9.7 | 0.00 | 0.15 | 0.15 | 86 | 1009.0 |
| 20260506191628 | 10 | 15 | 4.8 | 9.7 | 0.00 | 0.15 | 0.15 | 86 | 1008.9 |
| 20260506191100 | 10 | 20 | 3.2 | 9.7 | 0.00 | 0.15 | 0.15 | 86 | 1008.8 |
| 20260506191003 | 10 | 26 | 4.8 | 12.9 | 0.00 | 0.15 | 0.15 | 86 | 1008.8 |
| 20260506190501 | 10 | 57 | 3.2 | 12.9 | 0.00 | 0.15 | 0.15 | 86 | 1008.7 |
| 20260506190100 | 10 | 18 | 1.6 | 12.9 | 0.00 | 0.15 | 0.15 | 86 | 1008.6 |
| 20260506185558 | 10 | 23 | 1.6 | 12.9 | 0.00 | 0.15 | 0.15 | 86 | 1008.7 |
| 20260506185058 | 10 | 329 | 1.6 | 9.7 | 0.00 | 0.15 | 0.15 | 86 | 1008.5 |
| 20260506184632 | 10 | 347 | 1.6 | 9.7 | 0.00 | 0.15 | 0.15 | 86 | 1008.4 |
| 20260506184102 | 10 | 295 | 3.2 | 14.5 | 0.00 | 0.15 | 0.15 | 86 | 1008.3 |
| 20260506184009 | 10 | 9 | 1.6 | 14.5 | 0.00 | 0.15 | 0.15 | 86 | 1008.3 |
| 20260506183604 | 11 | 257 | 3.2 | 12.9 | 0.00 | 0.15 | 0.15 | 86 | 1008.2 |
| 20260506183111 | 11 | 23 | 3.2 | 9.7 | 0.00 | 0.15 | 0.15 | 85 | 1008.2 |
| 20260506182559 | 11 | 55 | 4.8 | 9.7 | 0.00 | 0.15 | 0.15 | 86 | 1008.0 |
| 20260506182059 | 11 | 28 | 4.8 | 9.7 | 0.00 | 0.15 | 0.15 | 86 | 1008.0 |
| 20260506181602 | 11 | 22 | 3.2 | 8.0 | 0.00 | 0.15 | 0.15 | 86 | 1008.0 |
| 20260506181059 | 11 | 300 | 3.2 | 8.0 | 0.00 | 0.15 | 0.15 | 86 | 1008.0 |
| 20260506180559 | 11 | 305 | 1.6 | 9.7 | 0.00 | 0.15 | 0.15 | 86 | 1008.0 |
| 20260506180059 | 11 | 19 | 3.2 | 9.7 | 0.00 | 0.15 | 0.15 | 86 | 1008.0 |
| 20260506180002 | 11 | 350 | 4.8 | 9.7 | 0.00 | 0.15 | 0.15 | 86 | 1008.0 |
| 20260506175501 | 12 | 308 | 4.8 | 12.9 | 0.00 | 0.15 | 0.15 | 85 | 1007.9 |
| 20260506175059 | 12 | 63 | 4.8 | 12.9 | 0.00 | 0.15 | 0.15 | 85 | 1007.9 |
| 20260506174601 | 12 | 336 | 3.2 | 8.0 | 0.00 | 0.15 | 0.15 | 85 | 1007.9 |
| 20260506174103 | 12 | 345 | 1.6 | 6.4 | 0.00 | 0.15 | 0.15 | 85 | 1007.8 |
| 20260506173603 | 13 | 306 | 0.0 | 4.8 | 0.00 | 0.15 | 0.15 | 85 | 1007.7 |
| 20260506173501 | 13 | 290 | 0.0 | 4.8 | 0.00 | 0.15 | 0.15 | 85 | 1007.6 |
| 20260506173101 | 13 | 304 | 0.0 | 4.8 | 0.00 | 0.15 | 0.15 | 84 | 1007.6 |
| 20260506172600 | 13 | 44 | 1.6 | 4.8 | 0.00 | 0.15 | 0.15 | 84 | 1007.5 |
| 20260506172059 | 13 | 76 | 0.0 | 6.4 | 0.00 | 0.15 | 0.15 | 84 | 1007.5 |
| 20260506171608 | 13 | 43 | 1.6 | 8.0 | 0.00 | 0.15 | 0.15 | 83 | 1007.5 |
| 20260506171501 | 13 | 329 | 0.0 | 8.0 | 0.00 | 0.15 | 0.15 | 83 | 1007.6 |
| 20260506171100 | 13 | 38 | 3.2 | 8.0 | 0.00 | 0.15 | 0.15 | 82 | 1007.5 |
| 20260506171002 | 13 | 44 | 4.8 | 8.0 | 0.00 | 0.15 | 0.15 | 82 | 1007.5 |
| 20260506170559 | 13 | 46 | 0.0 | 8.0 | 0.00 | 0.15 | 0.15 | 82 | 1007.4 |
| 20260506170002 | 14 | 36 | 3.2 | 8.0 | 0.00 | 0.15 | 0.15 | 82 | 1007.3 |
| 20260506165603 | 14 | 317 | 1.6 | 11.3 | 0.00 | 0.15 | 0.15 | 82 | 1007.2 |
| 20260506165059 | 14 | 50 | 8.0 | 11.3 | 0.00 | 0.15 | 0.15 | 82 | 1007.1 |
| 20260506164600 | 14 | 340 | 1.6 | 8.0 | 0.00 | 0.15 | 0.15 | 82 | 1007.1 |
| 20260506164100 | 14 | 349 | 3.2 | 9.7 | 0.00 | 0.15 | 0.15 | 82 | 1007.1 |
| 20260506163600 | 14 | 13 | 4.8 | 14.5 | 0.00 | 0.15 | 0.15 | 83 | 1007.1 |
| 20260506163109 | 14 | 70 | 6.4 | 14.5 | 0.00 | 0.15 | 0.15 | 83 | 1007.1 |
| 20260506162501 | 14 | 342 | 4.8 | 11.3 | 0.00 | 0.15 | 0.15 | 83 | 1007.0 |
| 20260506162102 | 13 | 51 | 3.2 | 14.5 | 0.00 | 0.15 | 0.15 | 84 | 1007.0 |
| 20260506161501 | 13 | 62 | 8.0 | 14.5 | 0.00 | 0.15 | 0.15 | 83 | 1007.0 |
| 20260506161002 | 14 | 50 | 6.4 | 11.3 | 0.00 | 0.15 | 0.15 | 83 | 1007.0 |
| 20260506160601 | 14 | 331 | 3.2 | 12.9 | 0.00 | 0.15 | 0.15 | 83 | 1007.0 |
| 20260506160109 | 14 | 343 | 3.2 | 11.3 | 0.00 | 0.15 | 0.15 | 83 | 1006.9 |
| 20260506160002 | 14 | 17 | 4.8 | 11.3 | 0.00 | 0.15 | 0.15 | 83 | 1006.9 |
| 20260506155559 | 15 | 36 | 4.8 | 14.5 | 0.00 | 0.15 | 0.15 | 83 | 1006.8 |
| 20260506155503 | 15 | 61 | 3.2 | 14.5 | 0.00 | 0.15 | 0.15 | 83 | 1006.8 |
| 20260506155102 | 15 | 44 | 6.4 | 14.5 | 0.00 | 0.15 | 0.15 | 82 | 1006.7 |
| 20260506154600 | 15 | 25 | 4.8 | 12.9 | 0.00 | 0.15 | 0.15 | 82 | 1006.8 |
| 20260506154102 | 15 | 50 | 6.4 | 14.5 | 0.00 | 0.15 | 0.15 | 82 | 1006.7 |
| 20260506153600 | 15 | 78 | 6.4 | 14.5 | 0.00 | 0.15 | 0.15 | 81 | 1006.7 |
| 20260506153501 | 15 | 50 | 8.0 | 14.5 | 0.00 | 0.15 | 0.15 | 81 | 1006.7 |
| 20260506153100 | 15 | 48 | 6.4 | 12.9 | 0.00 | 0.15 | 0.15 | 81 | 1006.7 |
| 20260506153001 | 15 | 53 | 6.4 | 11.3 | 0.00 | 0.15 | 0.15 | 81 | 1006.7 |
| 20260506152559 | 15 | 47 | 8.0 | 11.3 | 0.00 | 0.15 | 0.15 | 80 | 1006.7 |
| 20260506152100 | 15 | 54 | 4.8 | 11.3 | 0.00 | 0.15 | 0.15 | 81 | 1006.7 |
| 20260506151601 | 15 | 34 | 6.4 | 12.9 | 0.00 | 0.15 | 0.15 | 81 | 1006.7 |
| 20260506151100 | 15 | 48 | 4.8 | 9.7 | 0.00 | 0.15 | 0.15 | 81 | 1006.8 |
| 20260506150600 | 15 | 65 | 6.4 | 9.7 | 0.00 | 0.15 | 0.15 | 81 | 1006.8 |
| 20260506150059 | 15 | 96 | 4.8 | 9.7 | 0.00 | 0.15 | 0.15 | 82 | 1006.8 |
| 20260506145600 | 15 | 49 | 6.4 | 12.9 | 0.00 | 0.18 | 0.15 | 81 | 1006.8 |
| 20260506145059 | 15 | 32 | 6.4 | 12.9 | 0.00 | 0.18 | 0.15 | 81 | 1006.7 |
| 20260506144604 | 15 | 23 | 6.4 | 9.7 | 0.00 | 0.18 | 0.15 | 81 | 1006.8 |
| 20260506144001 | 15 | 15 | 3.2 | 14.5 | 0.00 | 0.18 | 0.15 | 79 | 1006.8 |
| 20260506143600 | 16 | 27 | 8.0 | 14.5 | 0.00 | 0.18 | 0.15 | 78 | 1006.7 |
| 20260506143101 | 16 | 42 | 4.8 | 8.0 | 0.00 | 0.18 | 0.15 | 76 | 1006.8 |
| 20260506142559 | 16 | 229 | 0.0 | 3.2 | 0.00 | 0.18 | 0.15 | 75 | 1006.8 |
| 20260506142501 | 16 | 57 | 0.0 | 3.2 | 0.00 | 0.18 | 0.15 | 76 | 1006.8 |
| 20260506142003 | 16 | 207 | 0.0 | 3.2 | 0.00 | 0.18 | 0.15 | 77 | 1006.8 |
| 20260506141600 | 16 | 202 | 0.0 | 0.0 | 0.00 | 0.18 | 0.15 | 75 | 1006.8 |
| 20260506141500 | 16 | 202 | 0.0 | 0.0 | 0.00 | 0.18 | 0.15 | 75 | 1006.9 |
| 20260506141101 | 16 | 126 | 0.0 | 4.8 | 0.00 | 0.18 | 0.15 | 76 | 1006.8 |
| 20260506140600 | 16 | 182 | 0.0 | 4.8 | 0.00 | 0.18 | 0.15 | 75 | 1006.8 |
| 20260506140502 | 16 | 163 | 0.0 | 4.8 | 0.00 | 0.18 | 0.15 | 75 | 1006.9 |
| 20260506140104 | 16 | 146 | 0.0 | 4.8 | 0.00 | 0.18 | 0.15 | 76 | 1006.7 |
| 20260506135558 | 16 | 196 | 0.0 | 4.8 | 0.00 | 0.18 | 0.15 | 76 | 1006.8 |
| 20260506135058 | 16 | 230 | 1.6 | 4.8 | 0.00 | 0.18 | 0.15 | 76 | 1006.8 |
| 20260506134559 | 16 | 202 | 0.0 | 9.7 | 0.00 | 0.18 | 0.15 | 77 | 1006.9 |
| 20260506134059 | 16 | 200 | 3.2 | 12.9 | 0.00 | 0.18 | 0.15 | 76 | 1006.9 |
| 20260506133559 | 16 | 209 | 6.4 | 12.9 | 0.00 | 0.18 | 0.15 | 76 | 1007.0 |
| 20260506133102 | 16 | 215 | 6.4 | 16.1 | 0.00 | 0.18 | 0.15 | 76 | 1007.0 |
| 20260506132600 | 16 | 209 | 4.8 | 16.1 | 0.00 | 0.18 | 0.15 | 75 | 1006.8 |
| 20260506132102 | 16 | 205 | 1.6 | 12.9 | 0.00 | 0.18 | 0.15 | 75 | 1006.8 |
| 20260506131617 | 16 | 187 | 1.6 | 12.9 | 0.00 | 0.18 | 0.15 | 75 | 1006.8 |
| 20260506131100 | 16 | 197 | 6.4 | 12.9 | 0.00 | 0.18 | 0.15 | 74 | 1006.7 |
| 20260506130600 | 16 | 181 | 1.6 | 6.4 | 0.00 | 0.18 | 0.15 | 75 | 1006.7 |
| 20260506130059 | 16 | 205 | 1.6 | 6.4 | 0.00 | 0.18 | 0.15 | 74 | 1006.7 |
| 20260506125502 | 16 | 139 | 0.0 | 4.8 | 0.00 | 0.18 | 0.15 | 74 | 1006.7 |
| 20260506125059 | 16 | 182 | 0.0 | 6.4 | 0.00 | 0.18 | 0.15 | 74 | 1006.6 |
| 20260506124601 | 16 | 212 | 0.0 | 4.8 | 0.00 | 0.18 | 0.15 | 73 | 1006.6 |
| 20260506124101 | 17 | 215 | 0.0 | 8.0 | 0.00 | 0.18 | 0.15 | 73 | 1006.6 |
| 20260506123600 | 17 | 191 | 1.6 | 9.7 | 0.00 | 0.18 | 0.15 | 73 | 1006.6 |
| 20260506123101 | 17 | 217 | 1.6 | 12.9 | 0.00 | 0.18 | 0.15 | 73 | 1006.6 |
| 20260506123001 | 17 | 207 | 0.0 | 12.9 | 0.00 | 0.18 | 0.15 | 73 | 1006.6 |
| 20260506122559 | 17 | 216 | 6.4 | 12.9 | 0.00 | 0.18 | 0.15 | 72 | 1006.5 |
| 20260506122001 | 17 | 121 | 0.0 | 6.4 | 0.00 | 0.18 | 0.15 | 74 | 1006.6 |
| 20260506121602 | 16 | 93 | 0.0 | 11.3 | 0.00 | 0.18 | 0.15 | 77 | 1006.6 |
| 20260506121100 | 16 | 184 | 4.8 | 11.3 | 0.00 | 0.18 | 0.15 | 77 | 1006.9 |
| 20260506121001 | 16 | 188 | 3.2 | 11.3 | 0.00 | 0.18 | 0.15 | 78 | 1006.9 |
| 20260506120604 | 15 | 111 | 3.2 | 8.0 | 0.00 | 0.18 | 0.15 | 79 | 1006.9 |
| 20260506115558 | 15 | 310 | 0.0 | 4.8 | 0.00 | 0.18 | 0.15 | 80 | 1006.9 |
| 20260506115058 | 15 | 38 | 0.0 | 3.2 | 0.00 | 0.18 | 0.15 | 80 | 1006.9 |
| 20260506114559 | 15 | 57 | 0.0 | 3.2 | 0.00 | 0.18 | 0.15 | 80 | 1006.9 |
| 20260506114101 | 15 | 320 | 0.0 | 4.8 | 0.00 | 0.18 | 0.15 | 80 | 1006.9 |
| 20260506113559 | 15 | 182 | 0.0 | 4.8 | 0.00 | 0.18 | 0.15 | 80 | 1006.9 |
| 20260506113100 | 15 | 137 | 0.0 | 4.8 | 0.00 | 0.18 | 0.15 | 80 | 1007.0 |
| 20260506112559 | 15 | 227 | 0.0 | 4.8 | 0.00 | 0.18 | 0.15 | 80 | 1006.9 |
| 20260506112058 | 15 | 305 | 0.0 | 1.6 | 0.00 | 0.18 | 0.15 | 80 | 1006.8 |
| 20260506111559 | 15 | 65 | 0.0 | 4.8 | 0.00 | 0.18 | 0.15 | 79 | 1006.7 |
| 20260506111101 | 15 | 55 | 1.6 | 6.4 | 0.00 | 0.18 | 0.15 | 79 | 1006.6 |
| 20260506110559 | 15 | 41 | 0.0 | 6.4 | 0.00 | 0.18 | 0.15 | 80 | 1006.6 |
| 20260506110059 | 15 | 310 | 0.0 | 6.4 | 0.00 | 0.18 | 0.15 | 81 | 1006.5 |
| 20260506105559 | 15 | 292 | 1.6 | 6.4 | 0.00 | 0.18 | 0.15 | 80 | 1006.5 |
| 20260506105104 | 15 | 319 | 1.6 | 6.4 | 0.00 | 0.18 | 0.15 | 80 | 1006.4 |
| 20260506104607 | 15 | 273 | 0.0 | 6.4 | 0.00 | 0.18 | 0.15 | 80 | 1006.5 |
| 20260506104101 | 15 | 216 | 0.0 | 4.8 | 0.00 | 0.18 | 0.15 | 78 | 1006.4 |
| 20260506103600 | 15 | 53 | 3.2 | 6.4 | 0.00 | 0.18 | 0.15 | 79 | 1006.4 |
| 20260506103100 | 15 | 36 | 3.2 | 6.4 | 0.00 | 0.18 | 0.15 | 79 | 1006.4 |
| 20260506102601 | 15 | 317 | 0.0 | 6.4 | 0.00 | 0.18 | 0.15 | 79 | 1006.4 |
| 20260506102059 | 15 | 40 | 0.0 | 3.2 | 0.00 | 0.18 | 0.15 | 79 | 1006.4 |
| 20260506101600 | 15 | 209 | 0.0 | 8.0 | 0.00 | 0.18 | 0.15 | 79 | 1006.5 |
| 20260506101058 | 15 | 91 | 0.0 | 8.0 | 0.00 | 0.18 | 0.15 | 79 | 1006.5 |
| 20260506100558 | 15 | 36 | 3.2 | 6.4 | 0.00 | 0.18 | 0.15 | 80 | 1006.5 |
| 20260506100503 | 15 | 78 | 3.2 | 9.7 | 0.00 | 0.18 | 0.15 | 80 | 1006.5 |
| 20260506100114 | 15 | 86 | 3.2 | 11.3 | 0.00 | 0.18 | 0.15 | 80 | 1006.6 |
| 20260506100003 | 15 | 61 | 3.2 | 11.3 | 0.00 | 0.18 | 0.15 | 80 | 1006.6 |
| 20260506095603 | 15 | 167 | 3.2 | 11.3 | 0.00 | 0.18 | 0.15 | 80 | 1006.6 |
| 20260506095502 | 15 | 142 | 3.2 | 11.3 | 0.00 | 0.18 | 0.15 | 80 | 1006.6 |
| 20260506095105 | 15 | 38 | 4.8 | 11.3 | 0.03 | 0.18 | 0.15 | 81 | 1006.4 |
| 20260506095000 | 15 | 55 | 4.8 | 11.3 | 0.03 | 0.18 | 0.15 | 81 | 1006.4 |
| 20260506094501 | 15 | 71 | 4.8 | 14.5 | 0.03 | 0.18 | 0.15 | 81 | 1006.4 |
| 20260506094059 | 15 | 59 | 6.4 | 14.5 | 0.03 | 0.18 | 0.15 | 84 | 1006.3 |
| 20260506093600 | 14 | 49 | 3.2 | 9.7 | 0.03 | 0.18 | 0.15 | 85 | 1006.3 |
| 20260506093100 | 14 | 54 | 4.8 | 9.7 | 0.03 | 0.18 | 0.15 | 85 | 1006.5 |
| 20260506093001 | 14 | 36 | 4.8 | 8.0 | 0.03 | 0.18 | 0.15 | 86 | 1006.5 |
| 20260506092600 | 13 | 336 | 3.2 | 8.0 | 0.03 | 0.18 | 0.15 | 86 | 1006.5 |
| 20260506092504 | 13 | 324 | 1.6 | 8.0 | 0.03 | 0.18 | 0.15 | 86 | 1006.5 |
| 20260506092059 | 13 | 55 | 3.2 | 8.0 | 0.03 | 0.18 | 0.15 | 86 | 1006.6 |
| 20260506091601 | 13 | 319 | 1.6 | 6.4 | 0.03 | 0.18 | 0.15 | 87 | 1006.6 |
| 20260506091100 | 13 | 23 | 1.6 | 4.8 | 0.03 | 0.18 | 0.15 | 87 | 1006.6 |
| 20260506090559 | 12 | 124 | 0.0 | 8.0 | 0.03 | 0.18 | 0.15 | 87 | 1006.5 |
| 20260506090101 | 12 | 338 | 0.0 | 14.5 | 0.03 | 0.18 | 0.15 | 86 | 1006.2 |
| 20260506085558 | 12 | 64 | 8.0 | 14.5 | 0.03 | 0.18 | 0.15 | 85 | 1006.0 |
| 20260506085059 | 12 | 51 | 4.8 | 16.1 | 0.00 | 0.15 | 0.15 | 84 | 1006.2 |
| 20260506084604 | 12 | 27 | 8.0 | 16.1 | 0.00 | 0.15 | 0.15 | 83 | 1006.3 |
| 20260506084100 | 12 | 29 | 6.4 | 9.7 | 0.00 | 0.15 | 0.15 | 83 | 1006.5 |
| 20260506083559 | 12 | 34 | 1.6 | 11.3 | 0.00 | 0.15 | 0.15 | 83 | 1006.5 |
| 20260506083100 | 12 | 32 | 4.8 | 11.3 | 0.00 | 0.15 | 0.15 | 82 | 1006.7 |
| 20260506082558 | 12 | 46 | 3.2 | 14.5 | 0.00 | 0.15 | 0.15 | 82 | 1006.7 |
| 20260506082059 | 12 | 53 | 6.4 | 14.5 | 0.00 | 0.15 | 0.15 | 82 | 1006.6 |
| 20260506081559 | 12 | 36 | 6.4 | 11.3 | 0.00 | 0.15 | 0.15 | 82 | 1006.5 |
| 20260506081058 | 12 | 72 | 3.2 | 19.3 | 0.00 | 0.15 | 0.15 | 82 | 1006.4 |
| 20260506080600 | 12 | 47 | 9.7 | 19.3 | 0.00 | 0.15 | 0.15 | 82 | 1006.3 |
| 20260506073059 | 12 | 103 | 8.0 | 24.1 | 0.00 | 0.15 | 0.15 | 84 | 1006.5 |
| 20260506072559 | 11 | 42 | 8.0 | 24.1 | 0.00 | 0.15 | 0.15 | 84 | 1006.3 |
| 20260506072100 | 11 | 70 | 11.3 | 20.9 | 0.00 | 0.15 | 0.15 | 84 | 1006.2 |
| 20260506071601 | 11 | 39 | 11.3 | 20.9 | 0.00 | 0.15 | 0.15 | 85 | 1006.4 |
| 20260506071102 | 11 | 49 | 12.9 | 22.5 | 0.00 | 0.15 | 0.15 | 85 | 1006.4 |
| 20260506070600 | 11 | 70 | 11.3 | 22.5 | 0.00 | 0.15 | 0.15 | 85 | 1006.3 |
| 20260506062059 | 10 | 17 | 9.7 | 22.5 | 0.00 | 0.15 | 0.15 | 86 | 1006.6 |
| 20260506061559 | 10 | 113 | 12.9 | 22.5 | 0.00 | 0.15 | 0.15 | 86 | 1006.7 |
| 20260506061059 | 10 | 49 | 6.4 | 22.5 | 0.00 | 0.15 | 0.15 | 86 | 1006.8 |
| 20260506060600 | 10 | 59 | 6.4 | 22.5 | 0.00 | 0.15 | 0.15 | 86 | 1006.7 |
| 20260506051100 | 9 | 49 | 11.3 | 24.1 | 0.00 | 0.15 | 0.15 | 88 | 1006.8 |
| 20260506050559 | 9 | 59 | 12.9 | 24.1 | 0.00 | 0.15 | 0.15 | 88 | 1007.0 |
| 20260506045058 | 9 | 49 | 9.7 | 19.3 | 0.00 | 0.15 | 0.15 | 87 | 1007.0 |
| 20260506044558 | 9 | 42 | 8.0 | 20.9 | 0.00 | 0.15 | 0.15 | 87 | 1007.1 |
| 20260506044058 | 9 | 69 | 6.4 | 24.1 | 0.00 | 0.15 | 0.15 | 87 | 1007.3 |
| 20260506043600 | 9 | 50 | 8.0 | 19.3 | 0.00 | 0.15 | 0.15 | 87 | 1007.4 |
| 20260506043059 | 9 | 29 | 6.4 | 19.3 | 0.00 | 0.15 | 0.15 | 87 | 1007.5 |
| 20260506042559 | 9 | 49 | 9.7 | 24.1 | 0.00 | 0.15 | 0.15 | 87 | 1007.6 |
| 20260506042101 | 9 | 53 | 14.5 | 24.1 | 0.00 | 0.15 | 0.15 | 87 | 1007.7 |
| 20260506041605 | 9 | 53 | 11.3 | 19.3 | 0.00 | 0.15 | 0.15 | 87 | 1007.7 |
| 20260506041058 | 9 | 48 | 9.7 | 25.7 | 0.00 | 0.15 | 0.15 | 87 | 1007.9 |
| 20260506040559 | 8 | 52 | 16.1 | 25.7 | 0.00 | 0.15 | 0.15 | 87 | 1007.9 |
| 20260506040110 | 8 | 30 | 11.3 | 19.3 | 0.00 | 0.15 | 0.15 | 87 | 1008.0 |
| 20260506035559 | 8 | 59 | 8.0 | 17.7 | 0.00 | 0.15 | 0.15 | 87 | 1008.0 |
| 20260506035059 | 8 | 70 | 9.7 | 17.7 | 0.00 | 0.15 | 0.15 | 87 | 1008.0 |
| 20260506034604 | 8 | 51 | 9.7 | 17.7 | 0.00 | 0.15 | 0.15 | 87 | 1008.0 |
| 20260506034059 | 8 | 51 | 9.7 | 17.7 | 0.00 | 0.15 | 0.15 | 86 | 1008.1 |
| 20260506033559 | 8 | 38 | 4.8 | 17.7 | 0.00 | 0.15 | 0.15 | 86 | 1008.3 |
| 20260506033059 | 8 | 55 | 6.4 | 24.1 | 0.00 | 0.15 | 0.15 | 86 | 1008.2 |
| 20260506032558 | 8 | 36 | 9.7 | 24.1 | 0.00 | 0.15 | 0.15 | 86 | 1008.2 |
| 20260506032058 | 8 | 36 | 9.7 | 16.1 | 0.00 | 0.15 | 0.15 | 86 | 1008.2 |
| 20260506031602 | 8 | 59 | 4.8 | 16.1 | 0.00 | 0.15 | 0.15 | 86 | 1008.3 |
| 20260506031102 | 8 | 44 | 8.0 | 17.7 | 0.00 | 0.15 | 0.15 | 86 | 1008.3 |
| 20260506030558 | 8 | 315 | 8.0 | 20.9 | 0.00 | 0.15 | 0.15 | 86 | 1008.4 |
| 20260506030116 | 8 | 26 | 9.7 | 20.9 | 0.00 | 0.15 | 0.15 | 86 | 1008.5 |
| 20260506025601 | 8 | 123 | 3.2 | 16.1 | 0.00 | 0.15 | 0.15 | 86 | 1008.5 |
| 20260506025058 | 8 | 360 | 3.2 | 16.1 | 0.00 | 0.15 | 0.15 | 86 | 1008.6 |
| 20260506024600 | 8 | 41 | 4.8 | 22.5 | 0.00 | 0.15 | 0.15 | 86 | 1008.5 |
| 20260506024059 | 8 | 30 | 11.3 | 22.5 | 0.00 | 0.15 | 0.15 | 86 | 1008.5 |
| 20260506023559 | 8 | 64 | 6.4 | 17.7 | 0.00 | 0.15 | 0.15 | 86 | 1008.6 |
| 20260506023059 | 8 | 338 | 4.8 | 16.1 | 0.00 | 0.15 | 0.15 | 86 | 1008.6 |
| 20260506022559 | 8 | 24 | 8.0 | 16.1 | 0.00 | 0.15 | 0.15 | 86 | 1008.8 |
| 20260506022059 | 8 | 338 | 3.2 | 16.1 | 0.00 | 0.15 | 0.15 | 86 | 1008.9 |
| 20260506021606 | 8 | 28 | 9.7 | 16.1 | 0.00 | 0.15 | 0.15 | 86 | 1008.9 |
| 20260506021059 | 8 | 342 | 6.4 | 17.7 | 0.00 | 0.15 | 0.15 | 86 | 1008.9 |
| 20260506020558 | 8 | 68 | 6.4 | 17.7 | 0.00 | 0.15 | 0.15 | 86 | 1009.0 |
| 20260506020058 | 8 | 13 | 4.8 | 20.9 | 0.00 | 0.15 | 0.15 | 86 | 1009.0 |
| 20260506020001 | 8 | 54 | 4.8 | 20.9 | 0.00 | 0.15 | 0.15 | 86 | 1009.0 |
| 20260506015559 | 8 | 51 | 9.7 | 19.3 | 0.00 | 0.15 | 0.15 | 86 | 1009.1 |
| 20260506015100 | 8 | 39 | 9.7 | 17.7 | 0.00 | 0.15 | 0.15 | 86 | 1009.1 |
| 20260506014612 | 8 | 55 | 4.8 | 17.7 | 0.00 | 0.15 | 0.15 | 86 | 1009.0 |
| 20260506014058 | 8 | 69 | 8.0 | 19.3 | 0.00 | 0.15 | 0.15 | 86 | 1009.0 |
| 20260506013559 | 8 | 55 | 9.7 | 19.3 | 0.00 | 0.15 | 0.15 | 86 | 1009.1 |
| 20260506013100 | 8 | 59 | 11.3 | 20.9 | 0.00 | 0.15 | 0.15 | 86 | 1009.1 |
| 20260506012559 | 8 | 41 | 8.0 | 25.7 | 0.00 | 0.15 | 0.15 | 86 | 1009.1 |
| 20260506012101 | 8 | 42 | 12.9 | 25.7 | 0.03 | 0.15 | 0.15 | 86 | 1009.1 |
| 20260506011558 | 8 | 36 | 11.3 | 19.3 | 0.03 | 0.15 | 0.15 | 86 | 1009.1 |
| 20260506011059 | 8 | 53 | 11.3 | 20.9 | 0.03 | 0.15 | 0.15 | 86 | 1009.2 |
| 20260506010558 | 8 | 47 | 8.0 | 20.9 | 0.03 | 0.15 | 0.15 | 86 | 1009.1 |
| 20260506010106 | 9 | 53 | 8.0 | 17.7 | 0.03 | 0.15 | 0.15 | 86 | 1009.2 |
| 20260506010001 | 9 | 34 | 8.0 | 19.3 | 0.03 | 0.15 | 0.15 | 86 | 1009.3 |
| 20260506005600 | 9 | 42 | 11.3 | 19.3 | 0.03 | 0.15 | 0.15 | 86 | 1009.2 |
| 20260506005058 | 9 | 64 | 6.4 | 17.7 | 0.03 | 0.15 | 0.15 | 86 | 1009.2 |
| 20260506004558 | 9 | 22 | 8.0 | 17.7 | 0.03 | 0.15 | 0.15 | 86 | 1009.2 |
| 20260506004058 | 9 | 45 | 8.0 | 17.7 | 0.03 | 0.15 | 0.15 | 86 | 1009.2 |
| 20260506003558 | 9 | 36 | 8.0 | 19.3 | 0.03 | 0.15 | 0.15 | 86 | 1009.1 |
| 20260506003058 | 9 | 36 | 8.0 | 19.3 | 0.03 | 0.15 | 0.15 | 87 | 1009.2 |